Location: Neuvy Saint Sepulchre
(46.5953°N, 1.8122°E)
Time: 10:11:32
(UTC+02:00)

ISS - Pass Details

Date: 21 March 2024
Orbit: 413 x 419 km, 51.6° (Epoch: 13 April)

Event Time Altitude Azimuth Distance (km) Brightness Sun altitude
Rises 22:10:59 0° 295° (WNW) 2,371 1.2 -30.0°
Reaches altitude 10° 22:13:07 10° 300° (WNW) 1,507 -0.1 -30.3°
Enters shadow 22:13:43 14° 303° (WNW) 1,273 -0.5 -30.4°
